Location: São Paulo
(23.5507°S, 46.6334°W)
Time: 14:55:29
(UTC-03:00)

Vanguard 2 Rocket - Visible Passes

Search period start: 16 February 2026 00:00
Search period end: 26 February 2026 00:00
Orbit: 553 x 3286 km, 32.9° (Epoch: 16 February)

Date Brightness Start Highest point End Pass type
(mag) Time Alt. Az. Time Alt. Az. Time Alt. Az.
16 Feb 9.7 01:17:31 16° ESE 01:17:31 16° ESE 01:19:21 10° ESE visible
16 Feb 8.4 03:22:51 36° SW 03:25:43 47° S 03:37:50 10° ESE visible
16 Feb 9.2 05:31:26 10° WSW 05:41:42 68° SSE 05:59:18 10° ENE visible
17 Feb 8.6 02:21:39 40° SSE 02:21:39 40° SSE 02:29:26 10° ESE visible
17 Feb 8.9 04:27:00 11° WSW 04:35:08 56° SSE 04:49:58 10° E visible
18 Feb 9.7 01:20:28 15° ESE 01:20:28 15° ESE 01:22:01 10° ESE visible
18 Feb 8.4 03:25:49 33° SW 03:28:57 47° S 03:40:48 10° E visible
19 Feb 8.6 02:24:42 37° SSE 02:24:42 37° SSE 02:32:18 10° ESE visible
19 Feb 8.7 04:30:03 11° WSW 04:38:06 62° SSE 04:52:53 10° E visible
20 Feb 9.8 01:23:36 14° ESE 01:23:36 14° ESE 01:24:46 10° ESE visible
20 Feb 8.4 03:28:58 34° SW 03:32:06 49° SSE 03:43:50 10° E visible
21 Feb 8.6 02:27:55 36° SE 02:27:55 36° SE 02:35:18 10° ESE visible
21 Feb 8.4 04:33:17 12° WSW 04:40:59 72° SSE 04:55:39 10° ENE visible
22 Feb 9.8 01:26:56 12° ESE 01:26:56 12° ESE 01:27:37 10° ESE visible
22 Feb 8.2 03:32:18 38° SW 03:35:09 55° SSE 03:46:51 10° E visible
23 Feb 8.6 02:31:21 36° SE 02:31:21 36° SE 02:38:23 10° E visible
23 Feb 8.2 04:36:44 14° WSW 04:43:48 87° SSE 04:58:09 10° ENE visible
24 Feb 9.9 01:30:29 11° ESE 01:30:29 11° ESE 01:30:40 10° ESE visible
24 Feb 7.9 03:35:52 47° SW 03:38:05 65° SSE 03:49:44 10° ENE visible
24 Feb 8.1 19:50:37 10° N 19:53:20 16° NNE 19:53:20 16° NNE visible
25 Feb 8.6 02:35:03 36° ESE 02:35:03 36° ESE 02:41:30 10° E visible
25 Feb 8.0 04:40:25 18° WSW 04:46:36 75° NNW 05:00:22 10° NE visible
25 Feb 8.6 20:56:55 10° NW 20:57:59 15° NW 20:57:59 15° NW visible
